• In Moldova, Republic
  • List of Countries
  • For 7 days
  • Water Temperature
  • Satellite Maps
  • Weather Map
  • Weather Widgets
  • user-avatar
    Login

    Hourly Weather Bregenz

    Today, 26 February, Sunday

    Time Temperature Precipitation Wind Pressure Humidity
    00:00 -5°C° 0 mm 2 mps 644 mmHg 89%
    01:00 -4°C° 0 mm 2 mps 644 mmHg 88%
    02:00 -4°C° 0 mm 2 mps 644 mmHg 88%
    03:00 -4°C° 0 mm 2 mps 644 mmHg 87%
    04:00 -4°C° 0 mm 2 mps 643 mmHg 87%
    05:00 -4°C° 0 mm 2 mps 643 mmHg 86%
    06:00 -4°C° 0 mm 2 mps 643 mmHg 86%
    07:00 -4°C° 0 mm 2 mps 643 mmHg 85%
    08:00 -2°C° 0 mm 2 mps 644 mmHg 84%
    09:00 +2°C° 0 mm 1 mps 644 mmHg 83%
    10:00 +4°C° 0 mm 1 mps 645 mmHg 82%
    11:00 +5°C° 0 mm 1 mps 645 mmHg 80%
    12:00 +5°C° 0 mm 1 mps 645 mmHg 78%
    13:00 +6°C° 0 mm 1 mps 645 mmHg 75%
    14:00 +6°C° 0 mm 1 mps 644 mmHg 78%
    15:00 +6°C° 0 mm 1 mps 644 mmHg 81%
    16:00 +6°C° 0 mm 1 mps 644 mmHg 84%
    17:00 +4°C° 0 mm 1 mps 643 mmHg 86%
    18:00 +1°C° 0 mm 1 mps 643 mmHg 88%
    19:00 -2°C° 0 mm 0 mps 642 mmHg 90%
    20:00 -3°C° 0 mm 0 mps 642 mmHg 90%
    21:00 -3°C° 0 mm 0 mps 642 mmHg 89%
    22:00 -4°C° 0 mm 0 mps 641 mmHg 89%
    23:00 -3°C° 0 mm 1 mps 641 mmHg 89%

    Tomorrow, 27 February, Monday

    Time Temperature Precipitation Wind Pressure Humidity
    00:00 -2°C° 0 mm 1 mps 641 mmHg 89%
    01:00 -2°C° 0 mm 1 mps 641 mmHg 89%
    02:00 -2°C° 0 mm 1 mps 641 mmHg 89%
    03:00 -2°C° 0 mm 1 mps 641 mmHg 89%
    04:00 -2°C° 0 mm 1 mps 641 mmHg 89%
    05:00 -2°C° 0 mm 1 mps 640 mmHg 89%
    06:00 -4°C° 0 mm 2 mps 640 mmHg 89%
    07:00 -4°C° 0 mm 2 mps 640 mmHg 88%
    08:00 -2°C° 0 mm 2 mps 640 mmHg 85%
    09:00 +1°C° 0 mm 2 mps 641 mmHg 82%
    10:00 +3°C° 0 mm 2 mps 641 mmHg 79%
    11:00 +4°C° 0 mm 2 mps 640 mmHg 77%
    12:00 +5°C° 0 mm 2 mps 640 mmHg 75%
    13:00 +6°C° 0 mm 2 mps 640 mmHg 73%
    14:00 +6°C° 0 mm 2 mps 639 mmHg 75%
    15:00 +6°C° 0 mm 2 mps 638 mmHg 78%
    16:00 +5°C° 0 mm 2 mps 638 mmHg 81%
    17:00 +4°C° 0 mm 2 mps 637 mmHg 84%
    18:00 +1°C° 0 mm 3 mps 637 mmHg 87%
    19:00 -1°C° 0 mm 3 mps 636 mmHg 90%
    20:00 -2°C° 0.1 mm 3 mps 636 mmHg 89%
    21:00 -2°C° 0.1 mm 3 mps 636 mmHg 88%
    22:00 -3°C° 0.1 mm 4 mps 636 mmHg 87%
    23:00 -2°C° 0.5 mm 3 mps 636 mmHg 89%

    Day after tomorrow, 28 February, Tuesday

    Time Temperature Precipitation Wind Pressure Humidity
    00:00 -2°C° 0.5 mm 3 mps 636 mmHg 90%
    01:00 -2°C° 0.5 mm 3 mps 636 mmHg 91%
    02:00 -2°C° 0.9 mm 3 mps 636 mmHg 92%
    03:00 -2°C° 0.9 mm 2 mps 635 mmHg 92%
    04:00 -2°C° 0.9 mm 2 mps 635 mmHg 93%
    05:00 -2°C° 0.8 mm 2 mps 635 mmHg 93%
    06:00 -2°C° 0.8 mm 2 mps 634 mmHg 94%
    07:00 -2°C° 0.8 mm 2 mps 634 mmHg 94%
    08:00 +1°C° 0.2 mm 2 mps 634 mmHg 93%
    09:00 +2°C° 0.2 mm 2 mps 634 mmHg 91%
    10:00 +3°C° 0.2 mm 2 mps 633 mmHg 90%
    11:00 +3°C° 0.1 mm 2 mps 633 mmHg 88%
    12:00 +3°C° 0.1 mm 3 mps 632 mmHg 85%
    13:00 +4°C° 0.1 mm 3 mps 632 mmHg 83%
    14:00 +2°C° 1.3 mm 5 mps 632 mmHg 86%
    15:00 -1°C° 1.3 mm 6 mps 631 mmHg 88%
    16:00 -4°C° 1.3 mm 8 mps 631 mmHg 91%
    17:00 -4°C° 0.9 mm 7 mps 632 mmHg 92%
    18:00 -5°C° 0.9 mm 6 mps 633 mmHg 92%
    19:00 -6°C° 0.9 mm 5 mps 634 mmHg 93%
    20:00 -6°C° 0.1 mm 5 mps 634 mmHg 93%
    21:00 -7°C° 0.1 mm 5 mps 635 mmHg 94%
    22:00 -8°C° 0.1 mm 4 mps 636 mmHg 95%
    23:00 -8°C° 0.1 mm 4 mps 636 mmHg 94%

    1 March, Wednesday

    Time Temperature Precipitation Wind Pressure Humidity
    00:00 -8°C° 0.1 mm 4 mps 636 mmHg 93%
    01:00 -8°C° 0.1 mm 4 mps 637 mmHg 93%
    02:00 -8°C° 0 mm 4 mps 637 mmHg 92%
    03:00 -8°C° 0 mm 4 mps 638 mmHg 91%
    04:00 -8°C° 0 mm 4 mps 638 mmHg 90%
    05:00 -8°C° 0 mm 4 mps 638 mmHg 90%
    06:00 -8°C° 0 mm 4 mps 639 mmHg 89%
    07:00 -8°C° 0 mm 5 mps 640 mmHg 89%
    08:00 -7°C° 0 mm 4 mps 640 mmHg 86%
    09:00 -5°C° 0 mm 4 mps 641 mmHg 82%
    10:00 -4°C° 0 mm 4 mps 642 mmHg 79%
    11:00 -2°C° 0 mm 4 mps 642 mmHg 76%
    12:00 0°C° 0 mm 3 mps 642 mmHg 74%
    13:00 +1°C° 0 mm 3 mps 641 mmHg 72%
    14:00 +2°C° 0.1 mm 2 mps 641 mmHg 76%
    15:00 +2°C° 0.1 mm 2 mps 641 mmHg 81%
    16:00 +2°C° 0.1 mm 2 mps 640 mmHg 86%
    17:00 +1°C° 0.5 mm 2 mps 640 mmHg 88%
    18:00 -1°C° 0.5 mm 3 mps 640 mmHg 90%
    19:00 -2°C° 0.5 mm 4 mps 640 mmHg 93%
    20:00 -2°C° 0.9 mm 4 mps 640 mmHg 92%
    21:00 -2°C° 0.9 mm 4 mps 640 mmHg 92%
    22:00 -2°C° 0.9 mm 4 mps 640 mmHg 92%
    23:00 -2°C° 1.2 mm 4 mps 641 mmHg 93%

    2 March, Thursday

    Time Temperature Precipitation Wind Pressure Humidity
    00:00 -2°C° 1.2 mm 4 mps 641 mmHg 94%
    01:00 -2°C° 1.2 mm 4 mps 642 mmHg 95%
    02:00 -2°C° 0.5 mm 4 mps 642 mmHg 95%
    03:00 -3°C° 0.5 mm 4 mps 643 mmHg 96%
    04:00 -3°C° 0.5 mm 4 mps 643 mmHg 97%
    05:00 -4°C° 0 mm 3 mps 644 mmHg 97%
    06:00 -5°C° 0 mm 3 mps 644 mmHg 97%
    07:00 -6°C° 0 mm 3 mps 645 mmHg 97%
    08:00 -4°C° 0 mm 3 mps 645 mmHg 94%
    09:00 -2°C° 0 mm 3 mps 646 mmHg 91%
    10:00 -1°C° 0 mm 2 mps 647 mmHg 88%
    11:00 +1°C° 0 mm 2 mps 647 mmHg 84%
    12:00 +2°C° 0 mm 2 mps 647 mmHg 80%
    13:00 +3°C° 0 mm 2 mps 647 mmHg 76%
    14:00 +4°C° 0 mm 1 mps 647 mmHg 77%
    15:00 +4°C° 0 mm 1 mps 647 mmHg 77%
    16:00 +5°C° 0 mm 1 mps 646 mmHg 78%
    17:00 +2°C° 0 mm 1 mps 645 mmHg 81%
    18:00 0°C° 0 mm 1 mps 645 mmHg 84%
    19:00 -5°C° 0 mm 2 mps 644 mmHg 86%
    20:00 -5°C° 0 mm 2 mps 644 mmHg 86%
    21:00 -5°C° 0 mm 2 mps 644 mmHg 86%
    22:00 -5°C° 0 mm 2 mps 644 mmHg 86%
    23:00 -6°C° 0 mm 3 mps 644 mmHg 85%

    3 March, Friday

    Time Temperature Precipitation Wind Pressure Humidity
    00:00 -6°C° 0 mm 3 mps 643 mmHg 85%
    01:00 -6°C° 0 mm 3 mps 643 mmHg 84%
    02:00 -6°C° 0 mm 3 mps 643 mmHg 84%
    03:00 -6°C° 0 mm 3 mps 643 mmHg 84%
    04:00 -5°C° 0 mm 3 mps 642 mmHg 84%
    05:00 -5°C° 0 mm 3 mps 642 mmHg 84%
    06:00 -5°C° 0 mm 3 mps 642 mmHg 84%
    07:00 -5°C° 0 mm 3 mps 641 mmHg 84%
    08:00 -2°C° 0 mm 3 mps 641 mmHg 81%
    09:00 0°C° 0 mm 3 mps 642 mmHg 79%
    10:00 +3°C° 0 mm 2 mps 642 mmHg 76%
    11:00 +4°C° 0 mm 2 mps 642 mmHg 75%
    12:00 +5°C° 0 mm 2 mps 641 mmHg 74%
    13:00 +6°C° 0 mm 2 mps 641 mmHg 73%
    14:00 +6°C° 0 mm 2 mps 641 mmHg 76%
    15:00 +6°C° 0 mm 2 mps 641 mmHg 78%
    16:00 +6°C° 0 mm 2 mps 640 mmHg 81%
    17:00 +4°C° 0 mm 2 mps 640 mmHg 84%
    18:00 +3°C° 0 mm 2 mps 639 mmHg 87%
    19:00 0°C° 0 mm 3 mps 639 mmHg 91%
    20:00 0°C° 0 mm 3 mps 639 mmHg 90%
    21:00 -1°C° 0 mm 3 mps 639 mmHg 90%
    22:00 -1°C° 0 mm 3 mps 639 mmHg 90%
    23:00 -1°C° 0 mm 2 mps 639 mmHg 90%
    Show more